Change the Weather History Date:

Tuesday, April 23, 2013

  Actual Average Record
Temperature  
Mean Temperature 36 °F 49 °F  
Max Temperature 37 °F 58 °F 84 °F (1902)
Min Temperature 34 °F 40 °F 20 °F (1933)
Degree Days  
Heating Degree Days 29 16  
Month to date heating degree days 480 468  
Since 1 July heating degree days 5881 6244  
Cooling Degree Days 0 0  
Month to date cooling degree days 0 0  
Year to date cooling degree days 0 0  
Moisture  
Dew Point 34 °F    
Average Humidity 88    
Maximum Humidity 100    
Minimum Humidity 75    
Precipitation  
Precipitation T in 0.13 in 1.50 in (2005)
Month to date precipitation 1.76 3.21  
Year to date precipitation 12.32 14.14  
Sea Level Pressure  
Sea Level Pressure 30.35 in    
Wind  
Wind Speed 11 mph (NE)    
Max Wind Speed 17 mph    
Max Gust Speed 26 mph    
Visibility 3 miles    
Events Fog , Rain    
T = Trace of Precipitation, MM = Missing Value Source: NWS Daily Summary

Daily Weather History Graph

Daily Weather History Graph

Search for Another Location

Airport or City:

Trip Planner

Search our weather history database for the weather conditions in past years. The results will help you decide how hot, cold, wet, or windy it might be!

Date:

Astronomy

Apr. 23, 2013 Rise Set
Actual Time 5:53 AM EDT 7:38 PM EDT
Civil Twilight 5:24 AM EDT 8:08 PM EDT
Nautical Twilight 4:47 AM EDT 8:44 PM EDT
Astronomical Twilight 4:09 AM EDT 9:23 PM EDT
Moon 5:27 PM EDT (4/23) 4:22 AM EDT (4/23)
Length of Visible Light 14h 44m
Length of Day
13h 44m
Waxing Gibbous, 94% of the Moon is Illuminated
Apr 23
Waxing Gibbous
Apr 25
Full
May 2
Last Quarter
May 9
New
May 18
First Quarter

Hourly Weather History & Observations

Time (EDT) Temp. Windchill Dew Point Humidity Pressure Visibility Wind Dir Wind Speed Gust Speed Precip Events Conditions
12:54 AM 35.1 °F 28.6 °F 28.0 °F 76% 30.56 in 10.0 mi ENE 8.1 mph - N/A   Mostly Cloudy
1:54 AM 34.0 °F 27.2 °F 28.0 °F 79% 30.54 in 10.0 mi NE 8.1 mph - N/A   Overcast
2:54 AM 34.0 °F 26.0 °F 28.9 °F 82% 30.51 in 10.0 mi NE 10.4 mph - N/A   Overcast
3:31 AM 34.0 °F 26.6 °F 28.9 °F 82% 30.46 in 10.0 mi NE 9.2 mph - N/A   Mostly Cloudy
3:54 AM 34.0 °F 28.0 °F 28.0 °F 79% 30.49 in 10.0 mi NE 6.9 mph - N/A   Mostly Cloudy
4:05 AM 34.0 °F 26.6 °F 28.0 °F 79% 30.46 in 10.0 mi NE 9.2 mph - N/A   Overcast
4:54 AM 34.0 °F 26.6 °F 28.9 °F 82% 30.48 in 10.0 mi NE 9.2 mph - N/A   Overcast
5:28 AM 34.0 °F 26.6 °F 28.9 °F 82% 30.44 in 10.0 mi NE 9.2 mph - N/A   Overcast
5:54 AM 34.0 °F 25.5 °F 28.9 °F 82% 30.47 in 9.0 mi NE 11.5 mph 17.3 mph N/A   Overcast
6:04 AM 34.0 °F 26.0 °F 30.0 °F 85% 30.44 in 9.0 mi NE 10.4 mph 18.4 mph N/A   Overcast
6:54 AM 34.0 °F 26.0 °F 30.9 °F 89% 30.47 in 7.0 mi NE 10.4 mph 19.6 mph N/A   Overcast
7:54 AM 34.0 °F 26.0 °F 32.0 °F 92% 30.47 in 2.0 mi NE 10.4 mph - N/A   Overcast
8:36 AM 34.0 °F 26.0 °F 33.1 °F 96% 30.43 in 2.0 mi NE 10.4 mph - N/A   Overcast
8:54 AM 34.0 °F 26.0 °F 33.1 °F 96% 30.46 in 2.0 mi NE 10.4 mph - N/A   Overcast
9:06 AM 34.0 °F 25.5 °F 33.1 °F 96% 30.42 in 1.8 mi NE 11.5 mph - N/A   Overcast
9:17 AM 34.0 °F 25.0 °F 33.1 °F 96% 30.41 in 2.0 mi NE 12.7 mph 18.4 mph N/A   Overcast
9:37 AM 35.1 °F 26.9 °F 34.0 °F 96% 30.41 in 1.8 mi NE 11.5 mph - N/A   Overcast
9:51 AM 35.6 °F 28.0 °F 33.8 °F 93% 30.41 in 2.0 mi NE 10.4 mph - N/A   Overcast
9:54 AM 35.1 °F 26.9 °F 34.0 °F 96% 30.44 in 2.0 mi NE 11.5 mph - N/A   Overcast
10:33 AM 35.1 °F 27.4 °F 34.0 °F 96% 30.40 in 1.0 mi NE 10.4 mph 18.4 mph N/A   Overcast
10:41 AM 35.1 °F 27.4 °F 34.0 °F 96% 30.40 in 0.8 mi NE 10.4 mph - N/A   Overcast
10:54 AM 35.1 °F 27.4 °F 35.1 °F 100% 30.43 in 0.2 mi NE 10.4 mph - N/A Fog Fog
11:54 AM 36.0 °F 28.5 °F 36.0 °F 100% 30.42 in 0.2 mi NE 10.4 mph 18.4 mph N/A Fog Fog
12:54 PM 36.0 °F 27.5 °F 36.0 °F 100% 30.39 in 0.2 mi NE 12.7 mph 21.9 mph N/A Fog Fog
1:54 PM 37.0 °F 29.3 °F 37.0 °F 100% 30.36 in 0.2 mi NE 11.5 mph 17.3 mph N/A Fog Fog
2:54 PM 37.0 °F 28.9 °F 37.0 °F 100% 30.33 in 0.2 mi NNE 12.7 mph 23.0 mph N/A Fog Fog
3:54 PM 37.0 °F 29.3 °F 37.0 °F 100% 30.30 in 0.2 mi NE 11.5 mph 18.4 mph N/A Fog Fog
4:11 PM 37.0 °F 29.8 °F 37.0 °F 100% 30.27 in 0.2 mi NNE 10.4 mph - N/A Fog Fog
4:40 PM 37.0 °F 29.3 °F 37.0 °F 100% 30.27 in 0.5 mi NE 11.5 mph - N/A Fog Fog
4:47 PM 37.0 °F 29.3 °F 37.0 °F 100% 30.27 in 0.2 mi NNE 11.5 mph 18.4 mph N/A Fog Fog
4:54 PM 37.0 °F 30.4 °F 37.0 °F 100% 30.30 in 0.2 mi NE 9.2 mph 18.4 mph N/A Fog Fog
5:54 PM 37.0 °F 29.3 °F 37.0 °F 100% 30.27 in 0.2 mi NE 11.5 mph 20.7 mph N/A Fog Fog
6:54 PM 37.0 °F 28.9 °F 37.0 °F 100% 30.26 in 0.2 mi NNE 12.7 mph 19.6 mph N/A Fog Fog
7:14 PM 37.0 °F 28.9 °F 37.0 °F 100% 30.22 in 0.2 mi NNE 12.7 mph 23.0 mph N/A Fog Fog
7:54 PM 37.0 °F 28.9 °F 37.0 °F 100% 30.23 in 0.2 mi NE 12.7 mph 21.9 mph N/A Fog Fog
8:09 PM 37.0 °F 27.7 °F 37.0 °F 100% 30.19 in 0.2 mi NNE 16.1 mph 21.9 mph N/A Fog Fog
8:54 PM 37.0 °F 29.3 °F 37.0 °F 100% 30.22 in 0.2 mi NNE 11.5 mph 20.7 mph N/A Fog Fog
9:33 PM 37.0 °F 28.1 °F 37.0 °F 100% 30.17 in 0.2 mi NNE 15.0 mph 21.9 mph N/A Fog Fog
9:54 PM 37.0 °F 29.3 °F 37.0 °F 100% 30.20 in 0.2 mi NNE 11.5 mph 23.0 mph N/A Fog Fog
10:54 PM 37.0 °F 28.9 °F 37.0 °F 100% 30.18 in 0.2 mi North 12.7 mph - N/A Fog Fog
11:23 PM 37.0 °F 28.9 °F 37.0 °F 100% 30.12 in 0.8 mi NE 12.7 mph 21.9 mph 0.00 in Rain Light Rain
11:49 PM 37.4 °F 29.3 °F 37.4 °F 100% 30.09 in 2.0 mi NNE 12.7 mph 24.2 mph 0.00 in   Overcast
11:54 PM 37.0 °F 28.9 °F 37.0 °F 100% 30.12 in 3.0 mi NE 12.7 mph 24.2 mph 0.00 in   Overcast